カタログに戻る

STARLINK-33694

運用中通信VLEO
NORAD 63407·PAYLOAD·🇺🇸 United States

打ち上げ Mar 31, 2025 から Cape Canaveral Space Force Station

Loading…

次のパス (今後24時間)

TLE

最新Source: CelesTrak SupGP

元期: Sep 15, 2026, 02:25 UTC

1 63407C 25065J   26258.10118056  .00037498  00000+0  13582-2 0  2582
2 63407  43.0016 117.1813 0001422 275.7492 322.5670 15.27558099    10

AllMySatでSTARLINK-33694をリアルタイム追跡

Download on the App Store